Wind_Speed
34 35 35 35 35 35 35 36 36 37 37 37 36 36 36 35 34 33 32 31 31 30 29 29 28 28 28 28 28 27 26 25 24 23 23 23 25 27 29 31 32 32 32 32 33 34 35 35 35 36 36 35 34 33 33 33 32 30 28 26 24 23 21 20 19 19 20 20 21 21 23 25 27 27 28 30 30 30 30 30 30 28 28 28 29 29 29 28
35 35 36 37 37 37 37 37 38 39 39 39 39 38 38 37 37 36 35 34 33 32 31 31 30 30 29 29 29 28 27 26 25 24 23 24 25 26 28 30 32 33 33 33 34 35 35 34 35 35 36 36 35 34 34 34 33 31 28 26 24 23 22 21 20 19 19 20 20 20 21 23 25 25 27 29 30 31 31 30 29 28 28 28 28 27 28 29
36 36 37 38 38 39 39 39 40 40 41 41 41 40 40 40 39 38 37 37 36 35 34 33 32 31 31 31 30 29 28 27 26 25 24 25 25 27 28 29 31 33 34 34 35 35 35 34 34 33 34 35 35 34 34 34 34 32 30 27 25 23 22 22 21 20 20 20 21 21 20 21 22 24 26 28 29 30 30 29 29 29 29 28 27 27 28 31
37 37 38 39 39 40 41 41 42 42 43 43 43 42 42 41 41 40 40 39 38 37 36 35 34 33 32 32 31 30 29 28 27 26 26 26 26 27 28 29 31 33 35 36 36 35 35 36 35 34 34 34 34 33 33 34 34 33 32 29 27 25 23 22 20 20 20 21 21 22 21 20 21 22 24 26 27 29 29 29 30 30 30 29 28 29 31 33
38 39 39 40 40 41 42 43 43 44 44 45 45 44 44 44 43 42 42 42 41 40 38 37 36 35 34 33 32 31 30 29 28 27 27 26 27 28 29 29 31 33 35 36 37 36 36 37 37 35 35 35 34 32 31 32 33 33 32 30 28 27 25 24 21 20 20 21 22 23 22 21 21 21 23 24 25 27 29 30 30 30 31 30 30 31 33 35
39 40 41 41 41 42 43 44 45 45 46 46 46 46 46 46 45 45 44 44 43 42 41 39 38 37 36 35 33 32 31 30 29 28 27 27 28 29 29 30 31 32 35 36 37 36 36 37 37 36 36 36 35 33 31 30 31 32 32 31 29 28 27 25 23 22 21 22 23 24 24 23 23 23 23 24 25 27 29 30 31 32 32 32 33 33 35 36
40 41 42 42 42 43 43 44 45 46 47 48 48 48 48 48 47 46 46 45 45 44 42 41 40 38 37 36 34 33 32 31 29 29 28 28 29 29 30 30 31 32 34 36 37 36 36 37 37 37 38 38 36 34 31 30 31 31 31 30 30 29 28 27 25 24 23 23 24 26 26 26 25 25 26 26 27 28 29 30 31 33 33 34 34 35 36 37
41 42 42 43 43 43 44 45 46 47 48 49 49 50 50 49 49 48 47 47 46 45 44 43 41 40 38 37 35 33 32 31 30 30 30 29 30 30 31 31 31 32 34 36 37 36 36 36 36 36 38 38 37 35 33 32 32 31 31 31 30 29 28 27 27 26 26 26 26 28 28 29 28 29 29 30 31 32 32 32 33 34 35 35 36 37 38 38
41 42 43 43 43 43 44 45 46 47 48 49 50 51 51 51 51 50 49 48 48 47 46 44 43 41 39 38 36 34 33 32 31 31 31 31 31 32 32 32 31 32 34 36 37 36 36 36 35 35 37 38 37 35 34 34 34 33 32 31 31 29 28 27 27 28 28 28 29 30 31 31 30 31 33 34 35 35 35 35 36 36 37 38 38 38 38 38
41 42 43 43 43 44 44 45 46 47 48 50 51 52 52 52 52 52 51 50 49 48 48 46 44 43 41 39 37 35 34 33 33 32 32 32 32 33 33 33 33 33 34 36 37 38 37 36 35 35 35 36 36 35 34 35 35 35 34 33 32 31 30 28 28 28 28 29 30 32 34 33 32 33 36 38 39 39 39 39 39 39 40 41 40 39 37 37
42 42 43 43 44 44 44 45 45 46 47 49 51 52 53 54 54 54 53 51 51 50 49 48 46 45 43 41 39 37 36 35 34 34 33 33 34 34 34 34 34 34 34 36 38 38 38 37 36 35 35 35 34 34 34 35 35 36 35 34 33 32 32 31 30 29 29 29 30 32 36 35 33 34 36 38 40 41 41 42 42 42 43 43 41 39 37 37
43 43 44 44 44 44 44 45 45 46 47 48 50 52 53 54 55 55 55 53 52 51 50 49 48 47 45 43 40 38 37 36 35 35 34 34 35 36 36 35 36 35 35 36 37 39 39 39 38 37 35 35 34 33 33 35 35 35 36 35 35 33 32 31 30 29 29 29 29 31 35 35 32 33 35 36 38 39 40 41 42 43 43 43 41 39 39 40
43 44 45 46 46 46 45 46 46 46 46 47 48 50 53 54 55 56 56 55 54 53 52 51 49 48 47 45 42 40 39 38 37 36 36 36 36 37 37 37 37 37 36 36 37 39 40 40 40 38 37 36 34 33 33 34 34 35 35 35 36 35 33 32 31 30 30 29 29 29 33 35 32 32 34 34 35 37 38 39 40 41 42 42 42 41 43 44
42 44 45 46 47 47 47 47 47 47 47 47 48 49 51 53 54 56 56 57 56 55 54 52 51 49 48 48 45 42 40 39 38 38 37 37 37 37 38 38 38 38 38 38 38 39 41 41 41 40 39 38 37 35 33 33 33 34 34 34 35 36 34 33 32 32 31 30 30 29 31 34 33 32 33 33 35 36 38 39 40 41 43 43 44 45 45 46
40 42 44 45 47 47 48 48 48 48 48 48 48 48 50 52 53 55 55 56 57 56 55 54 52 50 50 49 47 44 42 40 40 39 39 39 38 38 38 39 40 40 40 40 39 40 42 42 41 41 40 39 39 38 36 34 34 33 33 33 34 35 35 34 33 32 32 30 29 29 30 33 33 33 33 33 35 37 39 40 41 43 44 45 46 46 46 46
38 39 41 43 45 47 48 49 49 49 49 49 49 49 50 51 52 53 54 55 55 56 56 55 54 52 52 51 49 46 44 42 42 41 41 40 40 40 39 40 41 42 42 42 41 42 43 42 42 41 41 40 41 40 38 36 34 33 33 33 33 34 34 34 33 32 32 31 29 28 29 32 32 32 33 33 35 38 40 42 43 44 45 46 46 46 47 47
37 38 39 40 42 45 47 48 49 50 50 50 49 49 50 51 51 52 53 54 54 54 55 56 55 53 54 53 51 49 46 44 44 43 43 42 42 42 41 41 42 44 45 45 44 43 44 44 43 42 41 41 41 41 40 38 36 35 34 34 35 34 34 34 34 32 32 32 31 29 29 31 31 30 32 34 36 38 40 41 43 44 45 46 47 47 48 49
37 37 38 39 40 42 45 46 48 50 50 50 50 50 49 50 51 51 51 53 53 53 53 55 55 54 55 54 52 51 48 46 46 45 45 44 43 43 43 43 43 45 46 47 47 45 45 45 44 43 42 41 42 42 41 39 38 37 36 36 36 36 35 34 33 31 30 31 32 29 28 32 34 32 33 36 39 40 41 41 43 44 46 47 48 49 50 51
37 37 38 38 39 41 42 44 46 48 50 50 49 49 49 49 50 49 50 51 52 52 52 53 54 54 55 55 54 53 51 49 48 47 47 46 45 45 45 45 45 46 48 48 48 47 46 46 45 44 43 42 43 44 42 40 39 38 38 37 37 37 37 36 33 31 28 28 32 30 27 33 38 38 37 39 42 43 44 45 45 46 48 49 49 50 52 54
39 39 38 38 39 40 41 43 44 46 49 50 49 49 49 48 48 47 48 49 51 52 52 52 53 54 54 55 54 53 52 51 50 50 49 48 47 47 47 47 47 48 49 49 49 48 47 47 46 45 44 44 44 44 43 42 40 39 38 38 38 37 37 38 36 32 28 26 31 32 28 34 42 44 44 45 46 48 49 49 48 49 50 51 51 51 53 55
42 41 40 39 39 40 40 41 42 44 46 49 49 49 48 47 46 45 45 47 49 50 51 51 51 53 53 54 54 54 53 53 52 52 51 50 50 49 49 49 49 50 50 50 50 49 48 48 47 46 45 45 45 45 43 42 41 41 39 39 40 39 38 39 38 34 30 27 30 33 31 35 44 48 49 50 50 53 54 53 52 53 53 53 54 54 55 56
45 44 42 42 42 41 41 41 41 42 44 47 49 48 48 47 46 44 44 45 47 48 49 50 50 51 52 53 54 54 54 55 54 53 53 52 52 51 51 51 51 52 51 51 50 49 49 49 48 47 47 46 47 46 44 43 43 43 42 40 40 41 39 40 41 37 34 30 30 35 33 35 42 47 51 52 53 56 56 56 57 57 58 57 58 58 59 58
48 47 46 46 45 44 42 42 42 42 43 46 47 47 47 46 45 45 43 43 45 47 47 49 49 49 51 52 54 54 55 56 55 55 55 54 54 53 53 54 53 53 52 51 50 49 50 50 49 49 48 48 48 48 45 44 44 45 45 43 42 44 41 40 41 39 38 35 33 36 33 33 40 45 52 54 55 59 59 58 60 61 62 62 62 62 61 62
51 50 49 49 49 47 45 45 44 44 44 44 45 45 45 46 45 45 44 42 42 45 47 47 48 48 50 52 54 55 56 56 56 57 56 55 56 55 55 56 55 54 52 51 51 51 52 52 50 50 49 49 49 49 48 45 46 47 48 47 45 47 45 43 42 40 40 40 40 41 33 29 37 44 52 56 57 62 61 60 65 65 65 65 64 64 64 65
54 53 53 52 51 50 48 47 47 47 46 45 44 44 44 44 45 45 45 42 40 44 47 46 47 49 50 53 56 56 56 56 57 58 58 58 58 57 57 57 56 55 54 53 53 53 54 53 51 51 50 50 51 51 51 48 48 50 51 51 49 49 48 47 47 43 42 41 44 50 41 26 32 43 51 56 60 63 62 63 67 68 68 67 65 66 66 66
56 55 55 55 53 52 51 50 50 49 48 47 45 44 44 43 44 44 45 43 38 42 46 45 46 49 51 55 57 56 56 56 57 57 58 59 58 57 57 58 57 56 55 55 54 54 54 54 52 52 51 52 53 53 54 52 51 52 54 54 53 53 51 51 52 48 47 43 43 57 53 29 27 41 51 57 62 64 63 65 69 70 70 69 68 68 67 66
58 57 57 56 55 55 54 52 53 52 51 49 47 46 45 43 43 43 44 42 36 39 45 45 48 50 52 57 58 56 56 56 57 57 58 59 58 58 58 59 59 57 57 57 55 54 55 54 54 54 53 55 56 56 57 56 54 54 56 57 56 56 55 55 56 54 54 49 45 61 64 39 29 40 52 59 64 64 65 68 70 72 72 70 70 70 69 68
60 60 59 59 58 58 57 56 55 55 53 51 50 49 46 44 43 42 43 40 33 36 43 46 50 51 53 57 57 57 56 57 57 57 58 60 60 60 60 60 60 59 59 58 56 56 56 55 56 56 57 58 59 60 59 58 57 57 58 59 59 59 59 59 59 59 59 54 51 62 67 52 39 43 55 62 63 63 65 70 72 73 74 72 71 71 70 70
61 61 61 61 59 60 60 59 58 58 56 54 53 52 50 47 44 43 43 39 33 35 43 47 50 52 55 57 56 57 57 58 58 58 59 61 61 61 61 61 61 60 61 60 58 58 58 57 58 59 60 61 62 62 62 61 60 59 60 61 62 61 62 62 61 62 63 58 58 64 66 60 49 47 58 64 63 63 67 72 75 75 75 73 72 71 70 70
62 62 63 62 61 62 62 61 61 61 60 58 56 55 53 50 46 44 41 37 36 40 44 47 50 53 56 57 57 58 59 59 60 60 61 62 62 61 61 62 63 62 62 61 60 60 60 60 60 62 63 63 64 63 63 63 62 62 63 63 64 64 64 65 64 66 67 63 64 67 67 66 58 53 61 64 63 66 70 74 76 77 76 74 72 71 70 71
62 63 63 63 62 63 64 64 63 63 63 62 60 58 56 53 50 46 41 39 41 44 45 49 52 54 56 57 58 59 61 61 61 62 62 62 62 61 61 63 64 64 63 62 63 63 62 62 62 64 65 65 65 64 64 64 64 64 65 66 67 68 68 68 67 70 70 67 68 70 68 67 63 60 64 65 64 69 74 76 77 78 76 73 72 71 71 73
61 62 63 63 63 64 65 66 66 65 64 64 64 62 59 56 51 45 43 45 45 44 48 52 53 54 55 56 57 58 60 60 61 62 62 62 61 60 62 64 66 67 65 65 66 65 63 63 65 66 66 66 66 66 66 66 67 67 68 70 71 72 72 71 70 72 72 70 71 72 70 68 64 63 64 64 65 71 76 78 79 78 75 72 71 71 72 74
60 62 63 63 63 65 66 67 67 67 67 67 66 64 62 57 49 45 49 52 51 51 54 55 55 56 56 56 57 58 59 59 61 62 62 62 61 61 64 66 68 70 69 69 69 67 65 63 65 68 68 67 67 67 68 68 69 70 71 74 74 76 77 74 73 74 73 71 73 74 72 67 63 62 64 65 67 73 77 78 80 77 73 72 72 72 73 74
62 63 64 63 63 65 68 69 68 68 68 68 67 66 62 53 47 50 54 57 58 59 58 58 59 59 59 59 60 61 62 62 63 64 64 63 63 64 66 68 71 73 73 73 72 70 67 63 65 69 68 67 68 69 70 71 72 73 74 76 77 79 82 80 78 77 75 72 70 72 72 67 63 63 64 66 70 73 77 78 79 76 72 73 74 75 76 77
65 65 66 65 65 67 70 70 69 70 70 69 69 66 59 52 52 56 58 60 62 62 62 63 63 62 61 61 62 64 65 66 65 65 65 64 64 64 66 69 73 75 77 78 76 74 71 66 66 69 69 69 70 71 72 74 75 76 76 78 79 81 84 84 81 78 77 74 68 68 70 64 63 65 65 68 72 74 76 77 77 76 74 76 78 79 79 79
69 68 68 67 68 70 73 72 71 72 71 71 69 61 53 54 59 61 61 63 65 66 67 67 66 65 64 63 64 66 68 68 67 68 67 67 67 66 68 71 74 77 79 81 81 78 75 72 70 72 72 71 72 73 74 75 77 79 78 79 80 81 83 83 82 78 78 77 68 65 67 62 60 64 66 69 73 74 76 77 78 78 78 81 82 81 81 82
73 71 70 69 72 75 76 75 74 74 73 72 67 56 50 55 59 62 65 67 69 70 71 70 68 68 68 67 68 70 72 72 70 70 70 70 70 68 69 73 75 77 80 83 83 81 80 77 74 75 74 73 74 75 75 77 79 81 79 79 79 80 81 82 82 78 78 79 69 63 66 63 61 64 65 69 74 75 77 79 80 82 83 84 84 83 84 85
78 75 72 71 75 80 81 79 78 76 75 73 64 55 53 55 57 62 67 69 72 74 74 72 72 72 71 71 71 72 75 74 73 74 74 74 72 69 71 74 76 78 81 84 85 84 84 82 78 76 77 77 76 76 77 79 81 81 78 77 78 78 80 81 81 79 79 81 73 65 65 62 60 65 68 73 77 75 78 81 82 83 84 85 84 84 87 88
82 79 76 75 79 83 84 84 83 80 78 72 63 59 59 58 58 62 66 69 72 73 72 72 74 75 74 73 74 75 76 76 75 77 77 76 74 72 73 77 78 80 83 86 87 86 88 87 82 79 79 79 78 79 81 82 82 79 76 76 77 78 80 80 81 80 81 83 80 73 68 59 59 66 72 76 77 76 80 83 83 84 85 86 87 89 92 93
84 83 80 79 84 87 87 89 87 83 78 72 66 64 63 61 62 64 67 70 71 71 70 70 72 73 72 73 76 77 79 79 79 80 79 77 76 75 77 80 82 84 86 88 90 90 91 92 88 83 81 80 79 80 82 81 80 79 77 77 78 79 81 81 81 81 82 85 83 82 77 63 60 69 75 78 79 79 83 85 85 88 89 90 93 95 97 99
89 87 83 83 89 92 93 93 90 85 82 76 70 69 68 67 67 67 69 72 73 73 72 71 71 71 71 73 75 77 80 81 80 81 80 78 78 78 80 83 86 88 89 91 92 93 95 95 91 85 82 80 79 79 79 78 79 80 80 80 80 82 83 84 84 81 83 85 83 88 87 69 64 75 79 79 82 83 86 88 89 91 92 93 96 99 101 102
94 90 87 89 94 96 98 98 93 89 86 80 75 75 75 74 71 70 71 73 74 74 75 74 73 74 74 74 76 78 79 79 77 77 76 75 76 78 81 85 88 90 91 93 94 95 97 95 90 85 81 79 78 77 77 77 80 82 82 81 82 84 86 87 87 85 86 84 83 93 92 72 69 80 80 80 86 89 90 90 89 91 92 94 98 100 103 104
98 94 93 95 98 99 101 99 94 92 88 84 83 82 81 79 76 74 74 75 75 76 77 77 76 77 78 77 79 80 80 80 76 74 75 76 75 78 82 85 87 90 92 93 94 95 95 92 88 84 81 79 77 76 77 79 83 84 83 82 84 86 87 87 88 88 87 83 86 98 91 75 76 85 83 84 91 92 92 91 90 91 94 97 101 102 102 104
103 101 99 99 101 102 102 99 96 95 92 89 88 86 84 82 79 77 77 78 79 79 79 78 77 78 79 80 82 82 81 82 78 76 79 80 78 78 83 86 88 89 92 93 94 95 94 91 88 86 82 79 77 77 79 83 86 86 82 83 86 86 87 88 88 89 87 84 92 100 91 82 85 87 86 89 94 94 94 93 93 95 99 102 103 103 103 105
108 108 105 103 104 104 101 98 98 99 97 94 91 89 87 85 81 79 80 81 82 83 83 82 80 80 81 82 83 82 82 84 83 81 82 81 80 80 84 88 90 91 93 95 95 95 93 90 88 86 84 81 79 79 82 86 88 86 83 85 87 87 89 89 88 90 89 91 97 96 93 92 89 87 91 96 98 97 95 95 98 101 104 105 105 105 106 107
113 113 110 108 108 107 103 100 100 100 99 99 98 95 92 88 84 84 85 83 81 82 85 85 85 85 83 82 82 82 83 85 87 87 83 82 83 84 87 91 93 94 95 95 95 95 94 91 88 87 87 86 83 83 86 89 90 88 86 87 87 88 90 90 89 91 94 99 99 93 96 99 90 88 99 102 99 97 96 100 104 106 107 107 107 108 108 109
119 118 114 112 113 113 108 104 102 100 100 103 104 102 97 92 87 84 83 81 80 83 84 83 83 84 83 82 84 85 86 87 90 89 85 85 87 90 93 95 96 96 95 96 96 96 96 93 88 88 90 89 87 87 89 92 92 91 89 88 89 90 90 90 92 94 97 103 101 93 99 102 92 92 103 105 101 101 102 106 109 109 110 110 109 110 111 112
124 122 119 118 118 118 113 107 105 106 107 107 106 103 99 95 90 85 82 82 84 87 87 83 82 82 82 85 89 91 90 90 89 87 86 88 91 94 98 98 98 97 96 97 97 97 98 95 89 90 93 91 89 89 91 94 94 93 91 90 91 90 90 93 96 95 98 104 102 98 101 101 95 98 107 108 108 109 109 111 112 112 112 112 112 113 114 116
126 124 124 124 123 123 120 116 114 114 112 110 108 104 99 93 89 87 89 91 92 91 92 90 87 85 86 90 94 95 92 89 87 86 88 92 96 99 101 100 97 96 96 97 96 97 99 96 91 94 95 93 90 91 94 96 96 95 92 90 91 93 95 99 98 96 100 104 102 101 103 100 98 105 112 113 115 115 114 113 114 114 114 114 115 115 117 120
130 126 126 127 128 129 128 126 124 121 117 115 113 108 101 96 93 94 97 99 98 96 97 95 90 89 92 96 98 96 90 87 89 91 93 98 100 101 101 98 95 95 96 95 95 97 99 97 94 96 98 95 92 95 98 98 98 99 93 87 92 99 101 99 97 98 102 103 102 103 105 102 103 109 114 116 118 117 114 114 116 117 117 117 118 118 120 122
134 131 130 131 133 135 135 133 131 128 124 121 117 110 105 102 99 101 104 103 101 99 99 97 93 94 99 101 100 94 88 89 95 97 98 101 103 102 101 99 97 96 97 96 97 98 99 98 96 98 101 99 95 98 101 100 103 102 91 86 95 102 100 96 97 100 103 105 107 109 109 109 109 112 115 116 116 114 113 115 119 119 120 120 121 121 121 121
137 136 136 136 136 138 138 136 136 134 129 125 120 115 113 111 107 108 110 106 101 100 101 101 100 100 103 102 96 91 91 96 101 102 103 104 105 104 103 101 99 98 98 98 99 100 101 101 101 103 105 103 100 101 103 105 107 100 90 90 97 99 98 99 101 102 105 109 112 113 113 113 113 114 115 114 113 113 115 119 121 122 122 122 122 122 121 120
Wind_Direction
255 254 253 252 250 249 247 245 243 242 242 244 246 249 251 253 253 253 254 255 257 259 261 264 266 268 271 274 277 281 286 290 294 299 303 307 311 315 317 319 321 322 325 328 329 331 333 336 337 337 336 334 332 332 333 335 338 340 341 343 343 346 346 342 335 328 321 315 312 311 308 302 298 298 299 300 302 307 310 314 317 320 322 322 323 325 327 329
253 253 253 253 252 251 249 247 245 243 242 243 245 247 249 251 252 253 254 254 255 256 258 261 263 266 268 272 275 279 283 286 291 295 298 302 306 311 315 317 319 321 323 325 327 329 330 332 334 335 335 333 331 329 329 330 333 335 337 340 341 344 345 344 340 334 326 320 315 314 312 306 301 299 297 298 301 306 311 314 317 319 320 321 321 324 328 329
253 252 252 253 253 253 252 250 247 245 243 243 244 245 247 249 251 252 253 254 254 255 256 259 261 264 266 269 272 276 280 283 288 292 295 299 303 307 312 315 317 319 320 322 325 326 327 328 331 332 333 332 329 326 324 325 328 330 332 334 337 340 342 342 340 335 329 323 319 318 316 310 306 303 300 300 303 308 312 314 316 318 318 319 319 322 326 328
252 251 252 252 253 253 253 252 250 247 245 244 244 244 246 247 249 250 252 253 254 254 255 256 259 262 264 267 270 273 277 280 285 288 292 296 299 304 308 312 314 316 318 320 322 325 325 325 328 330 331 331 328 324 322 322 324 325 326 328 330 333 336 338 338 334 330 325 323 323 322 317 312 308 305 305 307 310 312 314 315 315 315 316 317 319 323 326
252 252 252 252 253 254 254 254 252 250 247 245 244 244 245 246 247 248 250 252 253 253 254 255 256 259 262 265 268 271 274 277 281 285 289 292 296 301 305 309 311 313 316 318 320 323 323 324 326 327 329 329 328 324 321 320 320 320 321 323 324 326 329 331 333 331 329 327 325 326 325 323 319 315 310 308 309 310 311 312 313 312 312 312 314 316 319 322
251 252 252 253 253 254 255 255 254 252 250 247 245 245 245 246 246 247 249 250 252 253 254 255 256 257 259 262 265 269 272 275 278 282 286 289 293 298 302 306 308 311 313 315 317 320 321 323 324 324 327 328 327 324 320 318 317 317 317 318 319 320 322 324 326 326 325 324 323 323 323 322 320 317 313 310 308 308 309 309 308 308 308 309 310 312 315 317
252 252 253 254 254 254 255 256 255 254 252 250 248 246 246 246 247 247 248 249 251 253 254 255 256 257 258 260 263 266 270 273 276 279 283 286 290 295 299 302 305 308 310 312 314 316 319 321 322 323 325 327 326 323 320 317 316 315 314 314 315 315 317 318 319 319 319 319 319 319 319 319 319 317 312 307 305 305 305 305 305 305 306 307 308 308 310 312
255 255 255 255 256 256 256 256 256 256 254 253 251 249 248 248 248 248 249 249 251 253 254 255 256 257 258 260 262 264 268 271 273 276 280 284 288 291 295 298 302 305 307 308 310 312 315 317 319 321 324 325 325 323 320 318 317 315 314 313 312 312 312 313 313 313 314 313 313 313 313 315 317 315 310 306 303 303 303 303 304 305 305 306 306 307 307 308
260 260 259 259 259 259 259 259 258 257 256 255 253 251 250 249 249 249 250 250 251 253 254 255 256 257 258 260 261 263 266 269 271 274 277 281 285 289 292 295 299 303 304 305 307 309 312 314 316 319 323 324 323 321 319 318 318 317 315 313 311 309 308 308 308 308 308 309 309 309 308 311 314 312 307 304 303 302 302 303 305 305 306 307 307 307 307 307
266 265 265 265 265 264 263 263 262 261 259 257 255 254 252 251 251 251 251 251 252 253 254 255 256 257 258 259 261 263 266 268 270 272 276 280 284 287 290 293 297 300 303 303 305 307 310 312 313 316 321 323 321 319 317 317 318 317 316 313 312 310 307 305 302 301 302 304 305 305 304 307 310 308 305 304 303 304 303 304 305 306 307 308 308 309 309 309
269 269 269 270 270 270 269 268 267 266 264 261 258 257 255 254 253 253 253 253 253 253 254 256 257 257 258 259 260 263 266 268 269 271 274 278 282 286 289 292 295 298 300 301 303 306 308 310 310 312 317 321 321 317 315 315 316 316 315 314 313 311 308 305 302 300 299 300 301 300 300 303 306 304 302 302 302 303 303 304 305 306 308 309 310 310 310 311
269 269 270 270 271 272 273 272 272 271 269 266 263 260 258 256 255 255 255 255 254 255 255 256 257 258 258 259 260 263 266 268 269 271 274 277 281 285 288 291 293 296 297 298 300 303 306 307 308 309 313 319 320 316 313 313 314 314 314 313 312 311 310 308 305 302 300 299 299 299 299 301 304 302 300 300 301 302 302 302 304 306 308 308 309 309 310 310
269 269 269 270 270 271 272 272 273 273 272 271 268 265 262 259 258 257 256 256 256 256 256 256 257 258 259 260 261 263 265 268 269 271 273 276 280 284 287 290 292 294 296 296 298 300 303 305 306 307 310 315 318 316 311 310 311 312 313 312 311 310 311 309 307 305 303 302 302 303 303 304 305 304 303 303 303 303 303 304 306 307 307 306 307 307 307 307
270 269 269 269 270 270 271 271 272 272 272 272 271 269 266 263 261 259 258 258 257 257 257 258 258 258 259 260 261 263 265 268 270 272 273 276 279 283 286 289 291 293 295 296 296 298 300 302 304 305 307 311 315 314 310 307 307 309 310 310 309 309 309 309 307 306 305 306 307 308 308 308 309 308 308 308 307 307 306 307 308 307 306 306 306 306 306 307
271 270 270 270 270 269 270 270 270 271 271 272 272 271 269 267 265 263 261 260 259 259 258 259 260 260 260 261 262 263 265 268 271 272 274 276 279 282 285 288 290 293 295 296 296 296 296 299 301 302 303 307 312 313 309 305 304 306 307 307 307 307 308 308 308 306 305 306 309 312 311 309 310 312 312 312 311 309 309 309 310 309 308 307 307 308 308 308
273 272 272 271 270 270 269 269 270 270 270 270 271 271 271 270 269 267 265 263 261 260 260 260 260 261 261 261 262 263 265 268 270 273 274 276 279 281 284 287 290 293 295 295 295 295 295 296 299 299 299 303 309 311 309 305 302 302 303 303 304 304 305 307 308 307 306 307 310 314 314 310 310 312 313 313 312 311 311 312 312 311 310 309 309 310 309 308
277 276 275 274 273 271 270 269 269 269 269 270 270 271 271 272 271 270 269 267 264 262 261 261 260 261 261 262 262 263 265 267 270 273 275 276 279 281 284 286 289 292 294 295 295 294 294 295 296 297 297 300 306 308 307 305 301 299 299 299 299 299 300 302 306 306 306 306 308 313 317 314 313 313 312 313 313 312 312 313 313 313 312 311 310 310 310 309
278 279 279 278 277 275 273 271 270 269 269 269 270 270 271 272 272 272 271 270 268 265 263 262 261 260 261 262 263 264 265 267 270 273 275 277 279 281 284 286 289 292 294 295 295 295 294 294 295 295 295 297 303 306 306 304 301 298 297 297 298 297 298 299 302 303 303 304 305 309 316 315 314 313 313 313 312 311 311 312 314 315 314 313 312 311 311 311
276 278 280 281 280 279 277 275 272 270 269 269 269 269 270 271 271 272 272 272 271 268 266 263 262 261 261 263 264 265 266 267 270 273 276 278 279 281 284 286 290 292 293 294 294 294 294 293 294 294 293 295 301 304 304 303 300 297 295 296 296 296 297 298 300 299 299 302 303 306 313 313 313 313 313 312 310 310 310 312 315 315 314 313 313 312 311 310
273 275 277 280 281 281 280 279 277 274 272 270 269 268 269 269 270 271 272 272 272 271 269 266 264 263 262 263 264 265 267 268 271 273 276 278 280 282 284 288 290 292 292 293 294 293 292 291 292 293 292 294 299 302 302 302 300 296 294 295 294 293 294 295 297 296 295 297 298 303 310 311 310 312 313 313 312 311 311 313 315 314 312 311 311 310 309 308
272 273 275 277 279 280 281 281 280 278 275 273 271 270 269 268 269 270 271 272 272 272 271 268 266 264 263 263 264 265 267 269 271 273 276 278 280 283 286 289 291 292 293 293 293 293 291 290 290 291 292 293 297 300 300 300 299 296 293 293 293 292 291 292 293 293 292 292 294 299 308 311 309 311 311 311 311 310 311 313 313 312 311 309 308 308 308 307
272 273 274 275 276 278 280 281 281 280 278 276 274 272 270 269 269 269 269 271 272 271 271 270 268 266 265 264 265 266 268 270 271 273 275 278 280 283 286 289 290 292 292 292 292 292 290 289 289 290 291 292 295 298 298 298 297 295 293 292 293 292 291 291 292 292 289 286 289 295 304 309 307 308 308 309 310 308 309 312 312 311 309 309 309 308 308 307
271 273 274 274 275 276 278 280 280 280 279 277 276 275 273 271 270 270 269 269 271 272 271 270 268 266 265 265 265 266 268 270 272 273 275 278 281 284 286 288 290 291 290 290 291 291 289 288 289 289 290 291 294 296 297 297 296 294 293 293 293 293 292 290 290 292 290 286 286 289 297 305 306 307 306 307 309 307 308 311 310 310 309 308 308 308 308 308
271 272 273 273 274 275 276 278 279 279 278 278 277 277 275 273 271 270 269 269 271 272 271 269 268 267 265 265 265 266 267 269 271 273 275 278 280 284 286 287 288 288 288 289 289 289 288 287 288 288 288 290 293 294 296 297 295 294 293 292 293 292 292 291 288 289 289 288 288 287 289 299 308 309 305 307 308 306 309 311 309 309 308 308 308 308 309 310
270 271 272 273 273 274 274 275 276 276 277 277 277 277 276 274 272 271 270 269 270 272 271 270 269 267 266 265 264 264 266 267 269 272 275 277 280 283 284 285 286 286 286 287 288 288 287 287 287 287 287 289 291 292 294 296 295 294 293 293 293 292 292 292 290 289 288 288 290 290 287 293 309 307 303 305 304 303 309 310 307 307 307 308 309 309 310 310
270 270 270 271 273 273 273 273 274 274 275 275 276 276 275 274 273 272 271 270 270 272 272 271 270 268 266 265 264 264 265 266 268 271 274 277 279 281 283 284 284 284 285 285 286 286 286 287 287 287 287 287 289 291 293 294 294 294 293 294 294 293 293 293 292 292 290 290 293 292 289 294 308 305 303 302 299 302 308 307 305 306 307 308 309 309 310 309
270 270 270 271 272 273 273 272 273 273 273 274 275 274 274 273 272 272 271 270 272 273 273 272 269 267 266 266 266 265 266 267 269 271 274 277 279 280 282 283 283 283 283 284 285 285 285 286 286 286 287 287 288 290 291 293 294 294 294 295 295 295 295 294 293 293 292 293 296 293 292 299 308 305 302 298 297 303 306 304 304 306 307 308 308 308 309 308
270 270 270 270 271 271 272 272 272 273 272 272 273 272 272 272 271 270 270 270 272 275 275 272 269 267 265 265 266 267 268 269 271 273 275 277 279 281 282 283 282 282 282 283 284 283 283 285 285 286 286 286 288 290 291 292 293 294 294 295 295 296 296 296 295 294 293 295 296 293 295 302 310 309 300 296 299 303 302 302 303 305 306 306 306 307 307 307
269 269 270 271 271 271 271 271 271 272 272 272 271 271 271 270 270 269 268 270 272 272 272 271 269 268 267 266 267 267 269 271 272 274 276 277 279 281 282 282 281 281 281 282 282 281 282 283 284 285 286 287 288 290 291 292 293 295 295 295 295 296 296 296 296 295 294 296 296 294 296 302 309 309 300 297 301 302 301 301 302 304 305 305 305 306 306 306
269 269 270 270 271 271 271 271 270 271 271 271 271 270 270 269 269 269 269 272 271 266 267 270 271 269 268 268 268 269 270 271 272 274 275 277 279 280 281 281 280 280 280 281 280 280 281 283 284 285 285 286 288 290 291 293 293 294 295 295 295 294 294 295 296 296 295 297 297 296 299 303 308 308 301 300 302 301 299 300 301 303 304 304 304 304 305 305
268 269 270 271 271 271 271 271 270 270 270 270 270 269 269 269 268 269 272 272 268 263 265 268 269 269 270 270 271 271 271 272 273 274 275 277 278 280 280 280 279 279 279 280 279 279 281 283 284 284 285 286 288 290 291 292 293 294 294 294 294 294 294 294 296 296 297 299 299 299 300 303 308 308 302 303 303 299 298 300 301 302 303 304 303 303 304 304
267 269 270 270 271 271 271 271 271 270 270 270 269 269 269 268 268 271 273 270 267 264 265 266 266 268 270 272 272 273 273 273 274 275 276 277 278 279 279 279 279 279 279 279 278 279 281 283 284 285 285 287 289 290 291 292 293 293 294 294 294 294 294 294 296 295 297 298 299 299 301 303 308 306 304 305 302 298 299 301 300 301 302 303 303 303 304 304
265 267 269 270 271 271 271 271 271 270 270 269 269 269 269 268 270 273 271 269 268 265 264 266 266 267 269 270 271 273 274 274 274 274 275 275 276 277 277 278 279 279 279 278 278 279 280 283 285 285 286 288 289 290 291 291 292 293 293 293 295 295 294 294 294 293 294 296 298 299 301 303 306 306 306 305 301 299 301 300 298 300 303 304 303 303 304 304
262 264 266 268 270 271 271 271 270 270 270 270 270 269 269 270 271 271 269 269 268 267 266 267 267 267 268 269 270 271 273 272 273 273 274 275 276 276 277 278 278 279 279 279 279 280 281 283 284 284 286 288 289 289 290 291 292 293 293 294 295 296 295 295 294 294 294 295 297 299 301 304 306 307 307 303 301 301 299 298 299 302 303 303 303 304 304 305
261 262 264 266 268 269 270 270 270 271 270 270 270 270 272 273 271 269 269 269 270 270 269 268 267 268 268 269 270 271 271 271 272 273 274 275 275 275 276 278 278 279 281 281 281 281 281 281 281 282 284 285 287 288 289 291 292 292 293 295 296 296 296 296 296 296 296 296 297 299 300 304 307 308 306 302 301 300 297 298 301 302 302 301 302 304 305 305
262 262 263 264 266 267 267 269 270 270 270 271 271 273 276 275 271 270 270 270 271 271 270 269 269 270 270 271 271 272 272 272 272 273 274 274 274 276 277 278 279 280 282 282 282 282 281 281 280 280 282 284 285 286 289 291 291 292 294 296 296 295 295 296 296 297 297 296 298 300 300 304 308 306 304 302 300 298 298 300 301 300 300 300 302 304 305 304
265 265 264 264 265 265 266 267 267 268 270 270 272 276 278 275 273 272 270 269 270 270 270 271 271 272 272 272 272 273 273 274 274 274 274 274 275 277 278 278 279 280 281 281 281 282 282 281 280 281 282 283 285 287 290 290 290 292 295 295 294 294 295 295 296 298 297 297 299 301 301 305 308 305 303 300 298 298 300 300 300 299 299 300 302 305 304 303
267 267 268 267 265 264 264 265 265 267 268 270 273 277 275 274 274 272 271 270 270 270 271 273 273 272 273 273 273 274 274 275 275 275 275 275 276 278 279 279 279 279 280 280 280 281 281 281 281 282 284 285 287 290 290 290 291 294 295 294 293 294 294 295 297 298 298 297 299 299 301 306 310 308 305 300 298 300 301 300 300 301 301 302 304 304 304 303
268 268 269 268 266 265 265 265 264 264 266 270 274 274 272 272 272 272 273 272 272 272 273 274 274 273 274 274 274 274 274 275 275 275 275 276 278 279 279 279 279 278 278 279 280 280 281 281 282 283 285 287 290 291 291 292 294 294 293 292 292 293 294 296 298 298 298 298 299 299 301 307 310 307 303 300 300 302 300 300 301 302 303 304 305 304 304 304
268 268 269 269 268 267 266 265 264 265 267 270 271 271 271 271 270 271 272 273 273 274 274 274 275 275 276 275 274 274 273 273 273 274 275 277 279 279 279 279 278 277 277 278 279 279 280 281 282 284 287 289 291 291 292 294 294 293 292 291 292 293 295 296 296 298 299 298 300 301 300 305 309 304 300 300 302 301 300 301 302 303 304 305 305 305 305 305
268 268 268 268 268 267 267 266 266 267 268 270 272 273 272 270 268 268 269 271 272 274 275 275 276 276 277 276 276 275 274 273 274 275 276 278 279 279 279 278 277 276 277 277 278 279 280 281 284 287 288 290 291 292 293 293 293 292 291 292 293 295 295 295 295 297 298 298 301 300 298 305 310 302 299 302 302 300 300 302 303 304 305 305 305 305 306 306
266 267 268 267 266 267 267 267 269 270 271 273 274 272 269 268 267 267 268 269 271 273 274 275 275 276 276 276 276 276 275 275 275 276 278 279 279 279 278 277 276 277 277 278 280 281 281 283 286 288 289 290 291 291 291 291 290 290 290 293 294 295 295 296 297 298 297 298 302 297 296 306 309 300 301 303 301 300 300 301 303 304 304 304 304 305 306 306
265 265 265 265 266 267 267 269 271 272 273 273 271 268 268 268 269 269 269 270 271 271 272 272 273 275 275 276 276 276 276 277 277 278 279 278 277 277 277 277 277 278 279 280 281 281 282 285 287 288 289 290 290 290 290 290 289 288 291 293 294 294 295 295 296 296 296 301 300 294 296 306 305 300 303 303 300 299 300 301 303 303 303 304 305 305 306 307
265 264 264 264 265 266 267 269 271 271 271 270 269 269 269 269 270 270 270 269 269 269 270 271 273 274 275 275 275 276 277 278 278 278 277 276 276 276 277 278 278 279 279 279 280 281 283 285 287 287 288 288 288 289 289 288 287 288 291 292 292 293 294 295 295 295 297 300 296 293 299 305 302 301 304 301 299 299 301 303 303 303 304 304 305 306 306 306
263 263 264 264 265 265 267 268 270 270 270 270 270 269 269 269 269 269 267 267 267 269 271 273 274 274 274 274 275 276 277 277 276 274 273 274 275 276 277 277 278 278 278 278 279 281 282 284 285 286 285 285 286 288 288 287 287 288 290 291 292 293 294 294 295 295 297 296 292 296 302 301 300 305 304 300 299 301 303 304 304 304 305 304 304 306 306 306
261 262 263 264 265 266 266 267 268 269 270 270 270 269 268 268 268 267 267 268 271 273 273 273 273 273 274 275 276 275 274 274 273 272 272 274 275 275 275 276 276 277 277 279 280 280 281 282 283 284 284 284 285 287 287 286 287 288 289 290 292 293 294 295 295 295 296 293 294 300 302 298 301 306 302 299 299 301 303 303 303 304 304 303 305 306 306 306
263 263 263 263 264 265 265 266 268 268 268 268 268 268 267 267 267 268 269 271 272 272 271 271 272 274 276 276 274 272 271 270 271 272 274 275 275 275 275 275 275 277 278 279 280 281 281 281 282 283 284 285 286 286 286 286 287 287 289 291 292 293 295 296 295 295 295 295 297 301 299 298 303 304 300 298 299 300 301 302 302 302 302 303 305 304 305 306
265 266 266 264 264 265 266 267 266 266 265 265 266 267 267 268 269 269 270 269 268 268 269 270 271 274 275 274 272 271 270 270 273 276 277 276 275 275 274 275 276 278 279 280 281 282 282 283 284 285 284 285 286 286 286 286 286 288 290 291 293 295 297 295 293 296 297 297 299 300 298 300 303 301 298 299 300 301 302 302 301 301 302 303 304 303 304 305
266 266 267 267 267 267 268 267 266 265 265 266 266 267 267 268 268 268 267 266 266 267 268 269 269 271 272 271 271 271 272 275 278 279 277 275 274 273 273 275 277 278 279 280 282 284 284 285 285 285 284 285 286 286 286 286 287 288 289 292 296 297 294 292 294 298 297 297 299 299 298 300 302 300 298 300 301 302 302 302 301 302 304 304 304 304 305 305
267 266 266 267 267 268 269 269 269 270 269 268 267 267 268 268 268 266 266 265 265 266 267 268 269 270 269 269 269 272 276 279 279 277 275 273 272 273 274 276 277 278 280 282 283 284 284 285 285 284 284 285 286 286 286 287 288 287 289 295 297 294 292 294 297 298 296 297 298 298 298 300 300 299 299 300 301 302 302 302 302 304 305 304 304 305 305 305
267 266 266 266 267 269 270 270 271 271 271 271 271 271 270 268 266 265 264 264 264 264 266 267 268 267 266 267 269 273 277 277 275 274 273 273 273 274 275 276 278 280 281 282 283 283 284 285 286 285 285 285 286 286 286 288 287 287 292 297 294 291 294 298 298 296 296 297 297 297 298 299 299 299 299 300 300 301 301 302 303 305 305 305 305 305 304 305
265 266 267 267 267 268 269 269 270 271 271 272 273 272 271 269 267 266 266 265 265 264 264 264 264 264 264 267 271 274 274 272 271 271 272 272 273 274 275 277 278 280 280 281 281 282 284 285 285 285 285 285 285 285 286 285 284 288 293 293 291 294 298 297 295 295 297 297 297 297 298 298 299 299 299 299 300 300 301 301 303 304 304 304 304 304 304 304
Height
10849 10849 10849 10849 10849 10849 10849 10849 10849 10849 10849 10849 10849 10849 10849 10849 10850 10850 10850 10851 10850 10850 10850 10850 10850 10849 10849 10848 10848 10847 10847 10846 10846 10845 10844 10843 10841 10839 10838 10836 10834 10833 10833 10831 10830 10829 10827 10825 10822 10820 10817 10815 10814 10813 10811 10810 10809 10807 10806 10804 10802 10800 10798 10796 10794 10792 10790 10789 10788 10788 10786 10784 10783 10783 10782 10781 10780 10780 10781 10781 10780 10779 10777 10775 10774 10773 10771 10770
10846 10846 10846 10847 10847 10847 10847 10847 10846 10846 10846 10846 10846 10846 10846 10847 10847 10847 10848 10848 10848 10848 10848 10847 10847 10847 10847 10846 10846 10845 10845 10844 10844 10843 10842 10841 10840 10838 10837 10835 10833 10831 10830 10829 10828 10826 10825 10824 10822 10819 10816 10814 10812 10811 10810 10808 10807 10806 10805 10803 10801 10800 10798 10796 10794 10792 10789 10788 10787 10786 10785 10783 10781 10781 10780 10779 10778 10778 10778 10778 10777 10776 10775 10773 10772 10771 10769 10768
10843 10844 10844 10844 10844 10844 10844 10844 10844 10844 10844 10844 10844 10844 10844 10844 10844 10844 10845 10845 10845 10845 10845 10845 10845 10845 10844 10844 10844 10843 10843 10842 10842 10841 10841 10840 10838 10837 10835 10833 10831 10829 10828 10827 10826 10825 10823 10822 10821 10820 10817 10814 10811 10810 10808 10807 10806 10804 10803 10801 10800 10798 10797 10795 10793 10791 10788 10786 10785 10785 10784 10782 10780 10778 10777 10777 10776 10776 10775 10774 10774 10773 10771 10770 10769 10768 10767 10765
10840 10840 10840 10840 10840 10841 10841 10841 10841 10841 10841 10841 10840 10840 10841 10841 10841 10841 10841 10842 10842 10842 10843 10843 10842 10842 10842 10842 10841 10841 10841 10840 10840 10839 10839 10838 10837 10835 10834 10832 10830 10828 10826 10825 10824 10822 10821 10819 10818 10817 10816 10813 10811 10809 10807 10805 10804 10802 10801 10800 10798 10797 10795 10794 10792 10790 10787 10785 10783 10782 10782 10781 10779 10777 10775 10775 10774 10773 10772 10771 10770 10769 10768 10767 10766 10765 10764 10763
10836 10836 10837 10837 10837 10837 10837 10837 10837 10838 10838 10838 10837 10837 10837 10837 10838 10838 10838 10839 10839 10839 10840 10840 10840 10840 10840 10839 10839 10839 10839 10838 10838 10837 10837 10836 10835 10834 10832 10831 10829 10827 10825 10823 10821 10820 10818 10816 10814 10813 10813 10811 10809 10808 10806 10804 10803 10801 10799 10798 10796 10794 10793 10792 10790 10788 10786 10783 10781 10780 10780 10779 10777 10776 10774 10773 10773 10771 10770 10769 10767 10766 10765 10764 10763 10762 10761 10759
10833 10833 10833 10833 10833 10833 10833 10833 10834 10834 10834 10835 10835 10834 10834 10834 10834 10835 10835 10835 10835 10836 10836 10837 10837 10837 10837 10837 10837 10837 10837 10836 10836 10835 10835 10834 10833 10832 10831 10829 10827 10825 10823 10821 10819 10818 10816 10814 10812 10811 10809 10808 10807 10806 10804 10803 10802 10800 10798 10796 10794 10793 10791 10790 10789 10787 10784 10782 10780 10778 10777 10776 10775 10774 10773 10772 10771 10770 10768 10767 10766 10764 10763 10761 10760 10759 10758 10757
10829 10829 10829 10829 10830 10830 10830 10830 10830 10830 10831 10832 10832 10831 10831 10831 10831 10831 10832 10832 10832 10832 10833 10833 10834 10834 10834 10834 10835 10835 10834 10834 10834 10833 10832 10832 10831 10830 10829 10827 10825 10823 10822 10820 10818 10817 10815 10813 10811 10809 10807 10805 10804 10802 10802 10800 10799 10798 10797 10795 10793 10791 10789 10788 10786 10785 10783 10781 10778 10776 10775 10774 10773 10772 10771 10770 10769 10768 10767 10766 10764 10762 10761 10759 10758 10757 10756 10755
10826 10826 10826 10826 10826 10827 10827 10827 10827 10827 10827 10828 10829 10829 10828 10828 10827 10827 10828 10828 10829 10829 10830 10830 10831 10831 10831 10831 10832 10832 10832 10832 10831 10831 10830 10829 10828 10827 10826 10825 10823 10821 10820 10818 10817 10815 10814 10812 10811 10808 10805 10803 10801 10799 10798 10797 10796 10795 10794 10793 10791 10789 10787 10786 10784 10782 10781 10779 10777 10774 10773 10772 10771 10770 10769 10767 10766 10765 10764 10763 10762 10760 10759 10757 10756 10755 10754 10753
10823 10823 10823 10823 10824 10824 10824 10824 10824 10824 10824 10824 10825 10825 10825 10825 10824 10824 10825 10825 10825 10826 10826 10827 10827 10828 10828 10828 10829 10829 10829 10829 10828 10828 10827 10826 10825 10824 10824 10823 10821 10819 10817 10816 10814 10813 10812 10810 10809 10807 10804 10801 10799 10797 10795 10793 10792 10791 10790 10789 10788 10787 10786 10784 10783 10781 10779 10777 10775 10772 10770 10770 10769 10768 10765 10764 10762 10761 10760 10759 10758 10757 10755 10754 10753 10752 10751 10749
10821 10821 10821 10821 10821 10821 10821 10821 10821 10821 10821 10821 10821 10822 10822 10822 10821 10821 10821 10822 10822 10822 10823 10823 10824 10824 10825 10825 10826 10826 10826 10826 10825 10825 10824 10823 10822 10821 10821 10820 10818 10817 10815 10813 10812 10810 10809 10808 10807 10806 10804 10800 10797 10795 10793 10791 10789 10787 10786 10786 10785 10784 10783 10782 10781 10779 10778 10775 10773 10770 10767 10767 10767 10765 10762 10759 10758 10757 10755 10754 10753 10752 10751 10750 10749 10748 10746 10744
10818 10818 10818 10818 10818 10818 10818 10818 10818 10818 10818 10818 10818 10818 10819 10819 10818 10817 10818 10819 10819 10819 10819 10820 10820 10821 10821 10822 10823 10822 10822 10822 10822 10821 10821 10820 10819 10818 10817 10816 10815 10814 10813 10811 10809 10807 10806 10805 10804 10803 10802 10800 10796 10794 10791 10789 10787 10785 10783 10782 10781 10780 10779 10778 10778 10777 10775 10774 10772 10768 10764 10764 10765 10762 10759 10757 10754 10753 10751 10749 10748 10747 10745 10744 10743 10742 10741 10739
10815 10815 10814 10814 10814 10814 10814 10814 10814 10814 10814 10815 10815 10815 10815 10815 10815 10814 10815 10815 10815 10816 10816 10816 10817 10817 10817 10818 10819 10819 10819 10818 10818 10818 10817 10816 10816 10814 10813 10813 10812 10811 10810 10808 10807 10804 10803 10801 10800 10800 10799 10798 10795 10793 10790 10787 10785 10783 10781 10779 10778 10778 10776 10775 10774 10773 10772 10771 10769 10766 10761 10761 10762 10760 10757 10755 10753 10751 10748 10747 10745 10743 10741 10739 10738 10737 10736 10735
10811 10811 10810 10810 10810 10810 10810 10810 10810 10810 10810 10810 10811 10811 10811 10811 10812 10812 10811 10812 10812 10812 10813 10813 10813 10814 10814 10814 10815 10815 10815 10815 10814 10814 10813 10813 10812 10811 10810 10809 10808 10807 10806 10806 10804 10802 10800 10798 10796 10796 10795 10794 10793 10791 10788 10786 10784 10781 10779 10776 10774 10774 10774 10772 10770 10769 10768 10767 10766 10764 10758 10756 10758 10756 10754 10752 10750 10748 10745 10743 10742 10739 10737 10735 10734 10733 10732 10730
10807 10807 10806 10806 10806 10806 10805 10805 10805 10805 10805 10805 10806 10807 10806 10807 10808 10808 10808 10808 10808 10809 10809 10809 10810 10810 10810 10810 10811 10811 10811 10811 10811 10810 10809 10809 10808 10807 10806 10805 10804 10803 10802 10802 10801 10799 10798 10795 10793 10792 10791 10790 10790 10788 10787 10784 10782 10779 10777 10775 10772 10770 10770 10769 10767 10765 10764 10763 10762 10761 10756 10752 10753 10752 10750 10748 10746 10743 10741 10739 10737 10735 10732 10731 10729 10728 10727 10725
10802 10802 10802 10802 10801 10801 10801 10800 10800 10800 10800 10800 10801 10802 10801 10802 10803 10803 10804 10805 10805 10806 10806 10806 10806 10807 10807 10806 10807 10807 10807 10807 10807 10806 10805 10805 10804 10803 10803 10801 10800 10799 10798 10798 10797 10796 10795 10793 10791 10788 10787 10786 10786 10785 10783 10781 10779 10777 10775 10772 10771 10768 10766 10766 10765 10762 10760 10759 10758 10758 10754 10750 10748 10747 10746 10744 10741 10738 10736 10735 10733 10731 10728 10726 10725 10724 10722 10720
10798 10797 10797 10797 10797 10797 10796 10796 10795 10795 10795 10795 10796 10797 10797 10797 10798 10799 10800 10800 10801 10801 10802 10802 10802 10803 10803 10802 10802 10803 10803 10803 10802 10802 10801 10801 10800 10799 10799 10797 10796 10795 10794 10793 10793 10791 10790 10790 10788 10785 10784 10782 10781 10781 10779 10778 10776 10774 10772 10770 10768 10766 10764 10762 10761 10759 10757 10755 10754 10754 10751 10747 10745 10743 10741 10740 10737 10734 10732 10730 10729 10727 10724 10722 10721 10719 10717 10715
10793 10793 10793 10793 10792 10792 10791 10791 10791 10790 10790 10791 10791 10792 10792 10792 10793 10795 10795 10796 10796 10797 10798 10797 10798 10800 10798 10798 10798 10798 10799 10799 10798 10798 10797 10797 10796 10795 10794 10793 10792 10791 10790 10788 10788 10787 10785 10785 10784 10782 10780 10778 10778 10776 10775 10773 10772 10771 10769 10767 10765 10763 10762 10760 10758 10756 10754 10751 10750 10750 10747 10743 10741 10740 10738 10735 10733 10730 10728 10726 10724 10722 10719 10717 10715 10714 10711 10709
10790 10789 10789 10789 10788 10788 10787 10787 10786 10786 10785 10786 10787 10787 10788 10788 10788 10790 10791 10791 10791 10792 10793 10792 10793 10794 10793 10793 10793 10793 10794 10794 10793 10793 10792 10792 10792 10791 10790 10789 10788 10787 10785 10784 10783 10782 10781 10780 10780 10778 10776 10775 10773 10772 10771 10769 10767 10766 10765 10764 10761 10759 10757 10756 10756 10753 10751 10748 10745 10747 10745 10739 10737 10737 10735 10732 10728 10726 10724 10722 10720 10717 10714 10711 10710 10708 10706 10703
10786 10785 10785 10785 10784 10784 10783 10782 10782 10781 10780 10780 10782 10782 10783 10783 10784 10785 10786 10786 10786 10787 10787 10787 10788 10789 10789 10788 10788 10788 10789 10789 10788 10788 10787 10787 10787 10786 10785 10784 10784 10782 10781 10779 10778 10776 10775 10774 10775 10774 10772 10771 10769 10768 10767 10765 10764 10761 10760 10759 10758 10755 10752 10751 10752 10751 10749 10747 10742 10742 10743 10738 10733 10732 10731 10728 10724 10721 10719 10717 10716 10713 10710 10707 10705 10703 10701 10699
10782 10781 10781 10781 10780 10780 10779 10778 10778 10777 10776 10775 10776 10777 10778 10778 10779 10780 10781 10781 10781 10781 10782 10783 10783 10783 10784 10783 10783 10783 10783 10783 10783 10782 10782 10782 10782 10781 10780 10780 10779 10777 10776 10774 10773 10772 10770 10769 10769 10768 10767 10766 10765 10763 10762 10761 10759 10757 10756 10755 10753 10752 10750 10746 10746 10747 10746 10745 10740 10738 10741 10737 10730 10727 10725 10723 10720 10716 10714 10713 10712 10709 10706 10703 10701 10700 10697 10695
10777 10777 10777 10777 10776 10775 10775 10774 10774 10773 10772 10770 10771 10773 10773 10773 10775 10776 10777 10776 10776 10777 10777 10777 10778 10778 10778 10778 10778 10778 10778 10777 10777 10777 10777 10777 10776 10776 10775 10775 10774 10772 10771 10769 10768 10767 10765 10764 10764 10763 10762 10761 10759 10758 10757 10756 10754 10752 10751 10751 10749 10748 10747 10743 10741 10742 10742 10742 10739 10736 10738 10736 10728 10723 10720 10718 10715 10711 10709 10708 10707 10704 10702 10700 10697 10695 10693 10690
10772 10772 10773 10772 10771 10771 10771 10770 10769 10769 10768 10766 10766 10768 10769 10769 10770 10771 10773 10772 10771 10772 10772 10772 10773 10773 10773 10773 10772 10772 10772 10771 10771 10771 10771 10771 10771 10770 10770 10769 10768 10767 10765 10764 10763 10762 10759 10758 10759 10757 10756 10755 10754 10753 10752 10752 10750 10747 10746 10746 10744 10742 10743 10741 10737 10738 10737 10738 10737 10733 10736 10735 10728 10722 10715 10712 10711 10705 10704 10704 10701 10699 10696 10694 10692 10690 10688 10685
10767 10768 10768 10767 10766 10767 10767 10765 10764 10764 10763 10762 10761 10763 10764 10765 10766 10767 10768 10769 10768 10767 10767 10767 10768 10768 10768 10767 10767 10767 10766 10764 10765 10765 10764 10765 10764 10764 10764 10762 10762 10761 10760 10759 10758 10757 10753 10752 10753 10751 10750 10749 10748 10747 10747 10747 10744 10741 10740 10740 10740 10736 10738 10738 10734 10733 10731 10731 10732 10730 10734 10734 10728 10721 10711 10708 10706 10700 10700 10700 10695 10693 10690 10688 10686 10684 10681 10678
10762 10763 10762 10761 10761 10762 10762 10761 10760 10759 10758 10758 10757 10758 10759 10760 10762 10762 10763 10766 10766 10763 10761 10762 10763 10763 10763 10762 10760 10760 10760 10759 10759 10758 10758 10759 10758 10758 10758 10756 10756 10755 10754 10754 10753 10752 10747 10746 10748 10746 10743 10743 10741 10740 10740 10741 10739 10735 10733 10734 10735 10732 10731 10732 10731 10731 10728 10726 10724 10723 10730 10734 10728 10719 10707 10703 10700 10693 10695 10695 10688 10686 10684 10682 10680 10677 10674 10671
10757 10758 10757 10756 10756 10757 10757 10756 10754 10753 10753 10753 10753 10754 10754 10755 10756 10757 10757 10761 10765 10760 10756 10758 10758 10757 10757 10755 10753 10753 10754 10754 10753 10753 10752 10752 10752 10752 10751 10750 10750 10749 10748 10748 10748 10746 10741 10740 10742 10740 10738 10736 10735 10734 10734 10735 10734 10730 10727 10726 10729 10727 10726 10725 10724 10726 10725 10723 10720 10712 10719 10734 10731 10718 10706 10699 10694 10688 10691 10689 10681 10679 10677 10675 10674 10670 10667 10664
10751 10752 10751 10751 10751 10751 10751 10751 10748 10748 10748 10748 10749 10749 10749 10750 10751 10752 10752 10757 10763 10757 10752 10754 10753 10752 10750 10746 10746 10748 10748 10748 10748 10748 10747 10746 10746 10746 10745 10744 10743 10742 10742 10741 10742 10740 10735 10734 10733 10732 10731 10729 10728 10728 10727 10728 10728 10726 10721 10719 10721 10720 10720 10719 10716 10719 10719 10721 10721 10702 10704 10729 10732 10718 10706 10695 10687 10685 10686 10683 10676 10673 10671 10669 10667 10664 10661 10657
10745 10745 10745 10746 10746 10744 10745 10745 10743 10742 10742 10743 10745 10744 10744 10745 10746 10747 10747 10752 10760 10756 10749 10749 10747 10746 10744 10739 10739 10741 10742 10742 10742 10743 10741 10740 10740 10739 10739 10737 10735 10736 10734 10734 10736 10732 10728 10728 10726 10724 10724 10722 10721 10721 10721 10721 10721 10720 10716 10713 10714 10712 10713 10712 10709 10711 10709 10715 10719 10696 10690 10717 10728 10717 10703 10690 10683 10682 10680 10674 10669 10665 10663 10662 10660 10656 10654 10649
10739 10738 10738 10739 10740 10739 10738 10739 10738 10736 10737 10738 10739 10738 10739 10741 10741 10743 10743 10749 10757 10753 10746 10743 10739 10739 10737 10734 10734 10735 10736 10736 10736 10737 10735 10733 10733 10733 10732 10730 10728 10728 10726 10727 10729 10725 10722 10722 10719 10718 10717 10715 10714 10714 10714 10714 10714 10713 10710 10708 10707 10705 10705 10703 10702 10703 10700 10708 10712 10693 10684 10702 10718 10714 10696 10683 10680 10679 10673 10665 10661 10658 10656 10655 10653 10649 10647 10642
10731 10731 10731 10733 10734 10732 10731 10733 10732 10730 10731 10733 10733 10733 10734 10736 10738 10739 10740 10747 10752 10748 10741 10736 10733 10733 10730 10729 10730 10730 10731 10730 10729 10730 10729 10726 10726 10726 10725 10723 10720 10720 10719 10720 10720 10717 10716 10716 10714 10711 10710 10708 10707 10707 10707 10706 10706 10706 10703 10702 10700 10698 10698 10695 10696 10694 10692 10700 10700 10689 10684 10690 10705 10708 10689 10676 10676 10672 10666 10658 10653 10651 10649 10648 10646 10642 10639 10634
10725 10724 10724 10725 10727 10725 10724 10725 10725 10724 10725 10726 10726 10728 10729 10731 10734 10735 10740 10745 10743 10739 10735 10731 10728 10726 10724 10724 10725 10724 10725 10725 10724 10723 10722 10721 10720 10720 10719 10715 10712 10712 10712 10712 10712 10710 10709 10709 10707 10704 10703 10702 10701 10701 10700 10698 10699 10697 10695 10694 10691 10691 10690 10688 10689 10686 10684 10692 10689 10682 10681 10681 10692 10697 10681 10672 10671 10663 10656 10651 10646 10643 10642 10641 10639 10635 10632 10627
10718 10717 10717 10718 10719 10718 10717 10717 10717 10717 10718 10718 10720 10721 10723 10727 10730 10733 10740 10738 10732 10731 10730 10724 10721 10719 10718 10719 10719 10719 10718 10718 10718 10716 10716 10715 10714 10715 10712 10707 10703 10702 10704 10705 10702 10703 10703 10702 10700 10698 10695 10694 10694 10694 10693 10691 10691 10689 10687 10685 10683 10683 10681 10681 10683 10677 10676 10683 10680 10676 10677 10676 10682 10683 10672 10667 10663 10652 10645 10642 10638 10635 10635 10634 10631 10629 10625 10620
10711 10710 10710 10711 10712 10710 10709 10709 10709 10710 10711 10711 10712 10714 10717 10722 10728 10734 10735 10728 10723 10725 10721 10715 10715 10714 10713 10714 10713 10712 10711 10711 10711 10709 10709 10709 10709 10709 10704 10700 10695 10692 10696 10697 10693 10695 10697 10695 10693 10690 10688 10687 10687 10686 10685 10685 10683 10681 10679 10675 10674 10673 10671 10674 10676 10670 10671 10674 10670 10669 10671 10673 10676 10672 10663 10661 10654 10642 10637 10633 10628 10627 10628 10627 10624 10621 10618 10613
10704 10703 10702 10704 10705 10703 10701 10700 10701 10702 10702 10702 10704 10708 10711 10718 10728 10731 10725 10718 10716 10716 10713 10710 10710 10709 10708 10709 10707 10706 10705 10704 10703 10702 10702 10703 10704 10703 10698 10693 10687 10682 10685 10687 10686 10688 10691 10693 10687 10680 10680 10680 10679 10678 10677 10677 10675 10673 10671 10666 10665 10661 10658 10664 10667 10663 10666 10668 10665 10661 10662 10667 10670 10664 10657 10653 10644 10634 10629 10623 10618 10619 10621 10618 10615 10612 10609 10606
10697 10696 10695 10697 10697 10695 10692 10692 10693 10693 10693 10694 10696 10700 10706 10717 10726 10723 10715 10710 10706 10707 10708 10706 10704 10703 10703 10704 10702 10700 10697 10696 10696 10694 10694 10696 10697 10696 10691 10686 10679 10674 10673 10674 10677 10679 10683 10689 10684 10673 10673 10674 10672 10671 10668 10667 10666 10665 10662 10658 10657 10651 10644 10648 10653 10653 10656 10661 10663 10656 10652 10658 10661 10657 10651 10643 10636 10628 10620 10615 10611 10612 10612 10608 10605 10603 10600 10598
10689 10689 10688 10689 10689 10687 10683 10682 10685 10685 10684 10686 10687 10693 10705 10715 10716 10711 10707 10703 10698 10699 10700 10697 10697 10698 10699 10700 10697 10694 10690 10688 10690 10688 10688 10690 10689 10688 10686 10680 10672 10667 10664 10662 10664 10669 10674 10681 10678 10669 10669 10668 10666 10664 10661 10659 10657 10654 10653 10651 10648 10642 10634 10631 10637 10641 10640 10646 10657 10653 10646 10650 10651 10649 10643 10632 10626 10619 10610 10609 10606 10604 10603 10598 10595 10595 10592 10588
10680 10681 10682 10682 10681 10676 10672 10674 10676 10675 10675 10677 10680 10692 10705 10707 10703 10700 10699 10696 10691 10689 10687 10687 10690 10692 10693 10694 10691 10687 10682 10682 10684 10683 10682 10682 10682 10684 10681 10674 10666 10661 10657 10651 10650 10656 10662 10668 10669 10664 10663 10664 10660 10657 10656 10653 10647 10643 10646 10645 10638 10633 10626 10620 10622 10629 10626 10628 10644 10645 10640 10646 10645 10641 10637 10625 10616 10609 10603 10603 10599 10595 10593 10589 10586 10586 10582 10576
10670 10674 10676 10677 10672 10665 10662 10664 10665 10666 10668 10668 10676 10692 10700 10696 10694 10692 10689 10686 10682 10678 10677 10681 10685 10684 10684 10686 10685 10680 10674 10675 10678 10675 10674 10674 10676 10681 10676 10667 10662 10656 10649 10641 10639 10644 10647 10652 10659 10657 10656 10657 10654 10652 10652 10646 10638 10636 10639 10636 10630 10624 10619 10613 10612 10619 10615 10612 10629 10636 10632 10639 10638 10631 10629 10618 10606 10603 10600 10595 10591 10587 10583 10579 10579 10577 10571 10565
10661 10665 10670 10671 10663 10654 10651 10652 10655 10658 10658 10661 10676 10690 10690 10687 10687 10683 10678 10676 10672 10670 10671 10675 10676 10675 10676 10678 10677 10673 10667 10668 10670 10665 10664 10665 10669 10675 10670 10661 10656 10650 10643 10634 10631 10635 10633 10635 10647 10650 10647 10648 10649 10647 10643 10637 10632 10632 10632 10627 10621 10615 10611 10607 10604 10607 10604 10598 10612 10624 10626 10634 10630 10620 10616 10606 10596 10597 10593 10585 10581 10578 10574 10571 10570 10566 10559 10553
10652 10657 10663 10663 10651 10643 10642 10640 10642 10647 10650 10659 10675 10680 10679 10680 10679 10675 10670 10666 10663 10663 10665 10667 10666 10664 10669 10670 10667 10664 10660 10660 10660 10656 10656 10658 10662 10667 10662 10653 10648 10642 10635 10627 10624 10626 10621 10621 10633 10642 10640 10641 10642 10638 10632 10629 10626 10625 10623 10618 10614 10608 10603 10601 10598 10597 10594 10587 10594 10605 10615 10630 10627 10612 10603 10593 10589 10589 10581 10575 10573 10568 10566 10564 10560 10555 10548 10543
10644 10647 10655 10654 10639 10632 10632 10626 10628 10637 10645 10657 10666 10667 10670 10673 10670 10667 10662 10656 10655 10655 10656 10659 10656 10656 10660 10660 10656 10655 10651 10651 10652 10648 10649 10653 10656 10657 10653 10645 10638 10631 10626 10622 10617 10616 10612 10610 10621 10633 10635 10636 10635 10628 10623 10621 10616 10613 10611 10608 10606 10601 10596 10594 10592 10592 10586 10579 10581 10582 10592 10620 10623 10603 10592 10586 10583 10579 10568 10566 10565 10559 10558 10555 10548 10543 10538 10533
10632 10636 10647 10645 10627 10620 10618 10613 10620 10631 10637 10649 10658 10659 10660 10660 10659 10658 10654 10649 10647 10647 10647 10649 10649 10648 10649 10648 10646 10644 10640 10640 10644 10641 10642 10648 10647 10646 10644 10636 10627 10620 10617 10613 10610 10608 10603 10601 10612 10624 10627 10628 10627 10622 10618 10614 10608 10602 10599 10598 10597 10592 10588 10583 10582 10588 10582 10575 10578 10564 10566 10604 10613 10588 10581 10580 10572 10565 10558 10556 10556 10552 10550 10543 10537 10533 10527 10523
10618 10627 10636 10629 10615 10610 10605 10603 10615 10624 10629 10644 10650 10645 10643 10645 10649 10650 10647 10642 10640 10640 10638 10638 10640 10638 10637 10638 10636 10633 10630 10630 10635 10635 10636 10639 10638 10634 10630 10623 10616 10611 10607 10604 10602 10598 10593 10594 10605 10614 10617 10619 10619 10616 10612 10606 10599 10592 10590 10592 10589 10583 10580 10572 10571 10576 10572 10574 10576 10551 10550 10591 10597 10572 10572 10572 10559 10552 10548 10546 10547 10543 10539 10532 10527 10523 10517 10512
10610 10616 10619 10611 10604 10601 10595 10599 10613 10617 10622 10633 10632 10628 10630 10633 10638 10641 10640 10637 10634 10632 10628 10627 10631 10628 10627 10628 10624 10622 10622 10620 10625 10630 10626 10626 10628 10624 10616 10610 10606 10602 10598 10595 10592 10587 10584 10589 10597 10602 10607 10610 10610 10609 10604 10596 10587 10582 10585 10586 10580 10575 10572 10567 10565 10562 10561 10571 10562 10534 10545 10583 10579 10559 10564 10560 10544 10540 10537 10537 10538 10532 10526 10521 10515 10511 10506 10500
10598 10599 10601 10600 10595 10590 10590 10600 10608 10605 10609 10615 10613 10617 10620 10620 10626 10632 10631 10628 10623 10621 10619 10620 10622 10620 10618 10617 10613 10614 10615 10611 10616 10621 10613 10611 10616 10615 10606 10599 10596 10593 10588 10584 10582 10579 10579 10584 10588 10592 10597 10600 10601 10600 10595 10585 10575 10574 10581 10578 10570 10569 10564 10561 10560 10553 10555 10564 10544 10522 10542 10568 10560 10551 10553 10543 10528 10528 10529 10526 10524 10519 10512 10507 10501 10497 10493 10486
10580 10579 10586 10589 10584 10581 10587 10597 10597 10591 10595 10600 10599 10606 10607 10607 10617 10621 10618 10615 10613 10612 10613 10614 10613 10610 10608 10607 10605 10607 10606 10601 10602 10603 10602 10602 10605 10606 10598 10588 10585 10582 10577 10574 10573 10572 10573 10577 10581 10582 10583 10587 10592 10591 10582 10572 10566 10568 10573 10568 10562 10561 10555 10552 10553 10547 10546 10544 10530 10529 10538 10541 10546 10546 10536 10524 10516 10515 10519 10514 10508 10504 10498 10492 10488 10484 10478 10470
10560 10562 10572 10578 10573 10571 10580 10588 10584 10580 10585 10586 10583 10589 10593 10597 10605 10607 10603 10605 10609 10607 10603 10603 10602 10598 10599 10600 10598 10596 10594 10590 10584 10585 10594 10598 10595 10594 10587 10578 10573 10570 10568 10567 10565 10563 10564 10569 10575 10574 10570 10572 10578 10579 10569 10559 10558 10561 10562 10559 10556 10553 10547 10545 10544 10540 10534 10520 10521 10539 10528 10515 10539 10541 10513 10505 10507 10506 10508 10502 10494 10490 10482 10478 10477 10470 10464 10457
10540 10546 10559 10565 10557 10555 10568 10578 10576 10573 10574 10568 10563 10569 10579 10585 10592 10596 10597 10601 10602 10593 10587 10590 10592 10590 10593 10593 10584 10579 10579 10576 10571 10576 10587 10588 10583 10578 10571 10565 10562 10561 10561 10558 10555 10554 10551 10558 10569 10566 10559 10561 10565 10565 10557 10548 10547 10550 10551 10551 10549 10545 10542 10539 10531 10531 10524 10505 10511 10535 10517 10501 10528 10528 10496 10490 10496 10497 10498 10490 10482 10477 10470 10468 10465 10457 10451 10446
10524 10532 10540 10543 10539 10540 10554 10567 10566 10558 10552 10549 10549 10557 10567 10575 10584 10590 10591 10588 10583 10577 10575 10580 10585 10585 10584 10577 10566 10562 10565 10565 10567 10575 10577 10572 10567 10560 10553 10553 10554 10554 10553 10547 10545 10544 10538 10547 10562 10555 10546 10551 10554 10552 10546 10537 10535 10540 10543 10542 10539 10538 10536 10526 10520 10523 10516 10498 10503 10518 10506 10501 10515 10505 10482 10480 10482 10482 10484 10476 10468 10464 10460 10457 10451 10443 10439 10433
10510 10517 10521 10520 10521 10526 10534 10545 10545 10537 10537 10542 10541 10546 10557 10568 10576 10579 10574 10567 10566 10567 10565 10566 10575 10578 10570 10561 10551 10547 10556 10563 10566 10569 10563 10552 10548 10542 10537 10542 10547 10546 10543 10538 10538 10536 10528 10536 10549 10542 10533 10540 10544 10540 10532 10527 10526 10528 10535 10538 10532 10527 10521 10512 10513 10518 10505 10492 10497 10498 10493 10503 10506 10484 10471 10474 10469 10465 10466 10460 10453 10451 10448 10442 10436 10430 10426 10418
10495 10503 10506 10500 10499 10506 10512 10518 10520 10519 10526 10529 10525 10536 10552 10558 10562 10561 10553 10548 10552 10555 10552 10553 10565 10567 10553 10543 10537 10540 10557 10564 10555 10551 10545 10533 10529 10528 10527 10533 10538 10536 10534 10533 10532 10526 10519 10524 10534 10527 10518 10527 10536 10527 10516 10519 10515 10511 10527 10540 10526 10508 10503 10503 10507 10506 10492 10485 10488 10484 10481 10493 10494 10473 10463 10465 10459 10452 10451 10445 10440 10438 10433 10427 10421 10416 10411 10404
10482 10485 10487 10482 10481 10488 10492 10495 10497 10499 10506 10510 10514 10532 10541 10539 10544 10541 10529 10530 10540 10543 10542 10544 10551 10548 10533 10525 10531 10544 10558 10552 10532 10529 10527 10517 10515 10518 10518 10522 10528 10527 10526 10526 10522 10516 10510 10512 10519 10512 10502 10512 10525 10514 10505 10508 10499 10497 10525 10536 10510 10490 10491 10495 10494 10490 10483 10475 10472 10472 10473 10475 10473 10463 10456 10454 10448 10442 10439 10432 10427 10424 10418 10411 10407 10402 10396 10390
10469 10466 10469 10469 10464 10466 10470 10474 10475 10476 10485 10497 10508 10518 10517 10516 10525 10520 10508 10518 10533 10533 10528 10527 10530 10528 10518 10519 10535 10545 10542 10527 10513 10512 10511 10504 10504 10508 10508 10514 10519 10519 10517 10515 10511 10508 10504 10501 10502 10497 10487 10494 10506 10502 10496 10491 10482 10496 10521 10515 10493 10486 10484 10479 10479 10479 10475 10464 10455 10459 10462 10458 10453 10448 10443 10441 10438 10433 10428 10422 10416 10410 10404 10399 10395 10389 10382 10377